Flag for Germany Weather past 2 weeks in Munich, Bavaria, Germany

39 °F

Light rain. Passing clouds.

Feels Like: 39 °F
Forecast: 38 / 44 °F
Wind: No wind

Location: Munich / Franz Josef Strauss Airport

Current Time: Oct 14, 2015 at 5:12:21 AM

Latest Report: Oct 14, 2015 at 4:50 AM

Visibility: 2 mi

Pressure: 29.98 "Hg (28.10 "Hg at 526m altitude)

Humidity: 100%

Dew point: 39 °F

Location of MunichLocation

Historic Weather in Munich — Graph


Munich temperature yesterday

Maximum temperature yesterday: 46 °F (at 1:50 PM)
Minimum temperature yesterday: 34 °F (at 12:20 AM)
Average temperature yesterday: 41 °F

Past Weeks' High & Low Weather Summary

High72 °F (Oct 6, 2:20 PM)100% (Sep 29, 7:50 AM)30.48 "Hg (Sep 29, 7:50 AM)
Low32 °F (Oct 12, 5:50 AM)37% (Oct 1, 3:50 PM)29.71 "Hg (Oct 6, 4:20 PM)
Average50 °F81%30.08 "Hg
* Reported Sep 29 3:20 AM — Oct 14 3:50 AM, Munich, Weather by CustomWeather, © 2015

Note: Actual official high and low records may vary slightly from our data, if they occured in-between our weather recording intervals... More about our weather records


Munich weather history for previous 24 hours

Time TempWeatherWind HumidityBarometerVisibility
3:50 AM
Wed, Oct 14
39 °FLight rain. Passing clouds.5 mph100%29.95 "Hg2 mi
3:20 AM39 °FLight rain. Passing clouds.3 mph100%29.98 "Hg2 mi
2:50 AM39 °FLight rain. Passing clouds.2 mph100%29.95 "Hg3 mi
2:20 AM39 °FLight rain. Partly cloudy.3 mph100%29.95 "Hg3 mi
1:50 AM39 °FLight rain. Passing clouds.7 mph100%29.95 "Hg3 mi
1:20 AM39 °FLight rain. Passing clouds.6 mph100%29.95 "Hg2 mi
12:50 AM41 °FRain. Passing clouds.6 mph100%29.95 "Hg2 mi
12:20 AM41 °FRain. Passing clouds.5 mph100%29.95 "Hg2 mi
11:20 PM
Tue, Oct 13
41 °FLight rain. Low clouds.5 mph100%29.92 "Hg2 mi
10:50 PM43 °FLight rain. Overcast.5 mph93%29.92 "Hg2 mi
10:20 PM43 °FLight rain. Mostly cloudy.5 mph93%29.92 "Hg2 mi
9:50 PM43 °FLight rain. Mostly cloudy.3 mph93%29.92 "Hg2 mi
9:20 PM43 °FLight rain. Partly cloudy.7 mph93%29.92 "Hg2 mi
8:50 PM43 °FRain. Partly cloudy.5 mph100%29.92 "Hg2 mi
8:20 PM43 °FLight rain. Passing clouds.3 mph100%29.92 "Hg3 mi
7:50 PM43 °FLight rain. Mostly cloudy.3 mph100%29.92 "Hg3 mi
7:20 PM45 °FLight rain. More clouds than sun.3 mph93%29.92 "Hg3 mi
6:50 PM45 °FLight rain. Broken clouds.3 mph93%29.92 "Hg4 mi
6:20 PM45 °FLight rain. Broken clouds.5 mph93%29.92 "Hg4 mi
5:50 PM45 °FLight rain. Broken clouds.3 mph87%29.92 "Hg4 mi
5:20 PM45 °FLight rain. Broken clouds.3 mph87%29.92 "Hg5 mi
4:50 PM46 °FLight rain. Broken clouds.6 mph82%29.92 "Hg5 mi
4:20 PM45 °FLight rain. Partly sunny.7 mph87%29.92 "Hg4 mi
3:50 PM45 °FLight rain. Broken clouds.6 mph87%29.92 "Hg4 mi
3:20 PM46 °FLight rain. Partly sunny.6 mph82%29.92 "Hg4 mi
2:50 PM46 °FLight rain. Partly sunny.6 mph82%29.92 "Hg4 mi
2:20 PM46 °FPartly sunny.6 mph82%29.92 "Hg4 mi
1:50 PM46 °FPartly sunny.7 mph82%29.92 "Hg4 mi
1:20 PM45 °FPartly sunny.6 mph81%29.92 "Hg4 mi
12:50 PM45 °FBroken clouds.8 mph87%29.92 "Hg4 mi
12:20 PM43 °FPartly sunny.7 mph87%29.95 "Hg4 mi
11:50 AM43 °FPartly sunny.7 mph87%29.95 "Hg4 mi
11:20 AM41 °FPartly sunny.8 mph87%29.95 "Hg4 mi
10:50 AM41 °FBroken clouds.7 mph87%29.95 "Hg4 mi
10:20 AM41 °FFog.7 mph87%29.95 "Hg3 mi
9:50 AM39 °FFog.7 mph93%29.95 "Hg3 mi
9:20 AM39 °FFog.7 mph93%29.95 "Hg3 mi
8:50 AM39 °FFog.5 mph93%29.95 "Hg3 mi
8:20 AM37 °FFog.5 mph100%29.95 "Hg3 mi
7:50 AM37 °FFog.3 mph100%29.95 "Hg3 mi
7:20 AM37 °FFog.2 mph100%29.95 "Hg3 mi
6:50 AM37 °FFog.2 mph100%29.95 "Hg3 mi
6:20 AM37 °FFog.2 mph100%29.95 "Hg2 mi
5:50 AM37 °FChilly.1 mph100%29.95 "Hg2 mi
5:20 AM37 °FFog.1 mph100%29.95 "Hg1 mi
Weather by CustomWeather, © 2015

See weather overviewHow to use our weather pages